Погода в Орехове

Украина / Запорожская область     47°34′10″N   35°46′39″E
темп.,
°C
ветер,
м/с
пор.,
м/с
влажн.,
%
обл.,
%
осадки,
мм/ч
давл.,
гПа
погр.,
м
22 апреля, чт
чт2200:00+8ююз48925 0.0 1019168
03:00+7юз34925 0.0 102081
06:00+6ююз33915 0.0 102155
09:00+12ююз33705 0.0 1022498
12:00+15ююз335518 0.3 10221441
15:00+17зюз334692 1.3 10212000
18:00+13ю5869100 0.6 1021317
21:00+11ююз597798 0.6 1022265
23 апреля, пт
пт2300:00+8юз48895 0.0 1022157
03:00+7ююз35880 0.0 102279
06:00+7ю369210 0.0 1022108
09:00+13ююз57635 0.0 1021571
12:00+16ююз7848100 0.0 10201578
15:00+17ююз7844100 0.0 10181928
18:00+15ю7853100 0.0 1017911
21:00+11ю61276100 0.1 1017402
24 апреля, сб
сб2400:00+10ююз3783100 0.5 1016223
03:00+9юз5985100 0.6 1015532
06:00+7сз488889 1.2 1017555
09:00+9зсз57674 1.2 1018975
12:00+12з710475 0.0 10181814
15:00+13з913377 0.0 10182474
18:00+10зсз913555 0.0 10191701
21:00+6зсз49494 0.0 1021254
25 апреля, вс
вс2500:00+4зсз23540 0.0 102228
03:00+3з35630 0.0 102371
06:00+2зсз237125 0.0 102344
09:00+8зсз345040 0.0 1023923
12:00+11зсз443887 0.0 10221708
15:00+12з333793 0.0 10211714
18:00+11зюз2140100 0.0 10201282
21:00+8юз2247100 0.0 102011
26 апреля, пн
пн2600:00+5ююз47680 0.0 1020125
03:00+5юз356780 0.0 101991
06:00+4зюз3479100 0.0 101880
09:00+10зюз575497 0.0 1018755
12:00+8зсз6883100 0.1 1018822
15:00+11зсз575261 0.1 10181882
18:00+11з574320 0.0 10172016
21:00+7зюз335546 0.0 101839